Погода в Шахматово

Россия / Челябинская область     54°59′08″N   60°38′08″E
темп.,
°C
ветер,
м/с
пор.,
м/с
влажн.,
%
обл.,
%
осадки,
мм/ч
давл.,
гПа
погр.,
м
11 мая, вт
вт1123:00+11в34475 0.0 102554
02:00+9юв22530 0.0 102611
05:00+8в01530 0.0 102710
08:00+13юв11425 0.0 1028215
11:00+17юв22315 0.0 10281281
14:00+20ююв222683 0.0 10271592
17:00+20ююз2226100 0.0 10271704
20:00+17ююв2240100 0.0 102819
12 мая, ср
ср1223:00+14ююз2238100 0.0 102814
02:00+12зюз33429 0.0 102917
05:00+11зюз33490 0.0 102917
08:00+16з22415 0.0 1029166
11:00+22ссз11274 0.0 10291152
14:00+24зсз1227100 0.0 10281834
17:00+25ю24263 0.0 10272333
20:00+21сз114430 0.0 102712
13 мая, чт
чт1323:00+16с225678 0.0 102818
02:00+14сз226415 0.0 102812
05:00+14сз33655 0.0 102823
08:00+18ссз35505 0.0 1028316
11:00+22с343799 0.0 10271306
14:00+25с34315 0.0 10261949
17:00+26с34297 0.0 10262215
20:00+22ссв224355 0.0 102617
14 мая, пт
пт1423:00+17з11465 0.0 102711
02:00+16з11525 0.0 102711
05:00+14зсз115841 0.0 102810
08:00+20ююз124642 0.0 1028181
11:00+25ююз34354 0.0 10271228
14:00+27юз45311 0.0 10262594
17:00+28юз443082 0.0 10242619
20:00+23зсз114477 0.1 102411
15 мая, сб
сб1523:00+19с225150 0.1 102413
02:00+17зсз335575 0.0 102425
05:00+16ссз22613 0.0 102513
08:00+21зсз2348100 0.0 1025180
11:00+26сз33300 0.1 10241378
14:00+28зюз34265 0.0 10232902
17:00+27сз4628100 0.0 10212882
20:00